Location: Avoca
(45.7167°N, 74.7000°W)
Time: 16:52:44
(UTC+00:00)

BlueWalker 3 - Pass Details

Date: 27 November 2022
Orbit: 499 x 517 km, 53.2° (Epoch: 01 February)

Event Time Altitude Azimuth Distance (km) Brightness Sun altitude
Rises 00:11:56 0° 277° (W) 2,622 6.8 -29.7°
Reaches altitude 10° 00:14:21 10° 289° (WNW) 1,733 5.5 -30.1°
Enters shadow 00:15:51 19° 305° (NW) 1,262 4.5 -30.4°
